Time,TemperatureF,DewpointF,PressureIn,WindDirection,WindDirectionDegrees,WindSpeedMPH,WindSpeedGustMPH,Humidity,HourlyPrecipIn,Conditions,Clouds,dailyrainin,SolarRadiationWatts/m^2,SoftwareType,DateUTC
2013-09-22 00:03:00,45.0,36.0,-100.00,NNE,29,12.0,24.0,70,0.00,,,0.00,0.800000,,2013-09-22 08:03:00,
2013-09-22 00:11:00,45.0,36.0,-100.00,NNE,29,12.0,24.0,70,0.00,,,0.00,0.800000,,2013-09-22 08:11:00,
2013-09-22 00:22:00,45.0,36.0,-100.00,NNE,29,12.0,24.0,70,0.00,,,0.00,0.800000,,2013-09-22 08:22:00,
2013-09-22 00:52:00,44.0,36.0,-100.00,NNE,17,9.0,20.0,75,0.03,,,0.03,0.800000,,2013-09-22 08:52:00,
2013-09-22 01:02:00,44.0,36.0,-100.00,NNE,17,9.0,20.0,75,0.03,,,0.03,0.800000,,2013-09-22 09:02:00,
2013-09-22 01:11:00,44.0,36.0,-100.00,NNE,17,9.0,20.0,75,0.03,,,0.03,0.800000,,2013-09-22 09:11:00,
2013-09-22 01:21:00,44.0,36.0,-100.00,NNE,17,9.0,20.0,75,0.03,,,0.03,0.800000,,2013-09-22 09:21:00,
2013-09-22 01:53:00,45.0,36.0,-100.00,NNE,25,10.0,16.0,71,0.02,,,0.05,0.800000,,2013-09-22 09:53:00,
2013-09-22 02:03:00,45.0,36.0,-100.00,NNE,25,10.0,16.0,71,0.02,,,0.05,0.800000,,2013-09-22 10:03:00,
2013-09-22 02:12:00,45.0,36.0,-100.00,NNE,25,10.0,16.0,71,0.02,,,0.05,0.800000,,2013-09-22 10:12:00,
2013-09-22 02:23:00,45.0,36.0,-100.00,NNE,25,10.0,16.0,71,0.02,,,0.05,0.800000,,2013-09-22 10:23:00,
2013-09-22 02:53:00,45.0,35.0,-100.00,NNW,347,12.0,23.0,67,0.01,,,0.06,0.800000,,2013-09-22 10:53:00,
2013-09-22 03:12:00,45.0,35.0,-100.00,NNW,347,12.0,23.0,67,0.01,,,0.06,0.800000,,2013-09-22 11:12:00,
2013-09-22 03:22:00,45.0,35.0,-100.00,NNW,347,12.0,23.0,67,0.01,,,0.06,0.800000,,2013-09-22 11:22:00,
2013-09-22 03:52:00,47.0,31.0,-100.00,NNW,332,27.0,37.0,54,0.01,,,0.07,0.800000,,2013-09-22 11:52:00,
2013-09-22 04:02:00,47.0,31.0,-100.00,NNW,332,27.0,37.0,54,0.01,,,0.07,0.800000,,2013-09-22 12:02:00,
2013-09-22 04:12:00,47.0,31.0,-100.00,NNW,332,27.0,37.0,54,0.01,,,0.07,0.800000,,2013-09-22 12:12:00,
2013-09-22 04:21:00,47.0,31.0,-100.00,NNW,332,27.0,37.0,54,0.01,,,0.07,0.800000,,2013-09-22 12:21:00,
2013-09-22 04:52:00,46.0,30.0,-100.00,NNW,327,28.0,45.0,53,0.00,,,0.07,0.800000,,2013-09-22 12:52:00,
2013-09-22 05:02:00,46.0,30.0,-100.00,NNW,327,28.0,45.0,53,0.00,,,0.07,0.800000,,2013-09-22 13:02:00,
2013-09-22 05:12:00,46.0,30.0,-100.00,NNW,327,28.0,45.0,53,0.00,,,0.07,0.800000,,2013-09-22 13:12:00,
2013-09-22 05:21:00,46.0,30.0,-100.00,NNW,327,28.0,45.0,53,0.00,,,0.07,0.800000,,2013-09-22 13:21:00,
2013-09-22 05:52:00,46.0,30.0,-100.00,NNW,327,23.0,48.0,53,0.00,,,0.07,0.800000,,2013-09-22 13:52:00,
2013-09-22 06:02:00,46.0,30.0,-100.00,NNW,327,23.0,48.0,53,0.00,,,0.07,0.800000,,2013-09-22 14:02:00,
2013-09-22 06:11:00,46.0,30.0,-100.00,NNW,327,23.0,48.0,53,0.00,,,0.07,0.800000,,2013-09-22 14:11:00,
2013-09-22 06:22:00,46.0,30.0,-100.00,NNW,327,23.0,48.0,53,0.00,,,0.07,0.800000,,2013-09-22 14:22:00,
2013-09-22 06:52:00,46.0,29.0,-100.00,NW,322,24.0,45.0,50,0.00,,,0.07,0.800000,,2013-09-22 14:52:00,
2013-09-22 07:02:00,46.0,29.0,-100.00,NW,322,24.0,45.0,50,0.00,,,0.07,0.800000,,2013-09-22 15:02:00,
2013-09-22 07:12:00,46.0,29.0,-100.00,NW,322,24.0,45.0,50,0.00,,,0.07,0.800000,,2013-09-22 15:12:00,
2013-09-22 07:23:00,46.0,29.0,-100.00,NW,322,24.0,45.0,50,0.00,,,0.07,0.800000,,2013-09-22 15:23:00,
2013-09-22 07:55:00,45.0,29.0,-100.00,NNW,333,22.0,41.0,52,-99.99,,,0.07,0.800000,,2013-09-22 15:55:00,
2013-09-22 08:04:00,45.0,29.0,-100.00,NNW,333,22.0,41.0,52,-99.99,,,0.07,0.800000,,2013-09-22 16:04:00,
2013-09-22 08:13:00,45.0,29.0,-100.00,NNW,333,22.0,41.0,52,-99.99,,,0.07,0.800000,,2013-09-22 16:13:00,
2013-09-22 08:23:00,45.0,29.0,-100.00,NNW,333,22.0,41.0,52,-99.99,,,0.07,0.800000,,2013-09-22 16:23:00,
2013-09-22 08:54:00,46.0,27.0,-100.00,NNW,330,24.0,40.0,48,0.00,,,0.07,4.300000,,2013-09-22 16:54:00,
2013-09-22 09:03:00,46.0,27.0,-100.00,NNW,330,24.0,40.0,48,0.00,,,0.07,4.300000,,2013-09-22 17:03:00,
2013-09-22 09:12:00,46.0,27.0,-100.00,NNW,330,24.0,40.0,48,0.00,,,0.07,4.300000,,2013-09-22 17:12:00,
2013-09-22 09:23:00,46.0,27.0,-100.00,NNW,330,24.0,40.0,48,0.00,,,0.07,4.300000,,2013-09-22 17:23:00,
2013-09-22 09:53:00,45.0,27.0,-100.00,NNW,334,21.0,41.0,49,0.00,,,0.07,26.900000,,2013-09-22 17:53:00,
2013-09-22 10:02:00,45.0,27.0,-100.00,NNW,334,21.0,41.0,49,0.00,,,0.07,26.900000,,2013-09-22 18:02:00,
2013-09-22 10:12:00,45.0,27.0,-100.00,NNW,334,21.0,41.0,49,0.00,,,0.07,26.900000,,2013-09-22 18:12:00,
2013-09-22 10:22:00,45.0,27.0,-100.00,NNW,334,21.0,41.0,49,0.00,,,0.07,26.900000,,2013-09-22 18:22:00,
2013-09-22 10:52:00,44.0,27.0,-100.00,NW,314,35.0,48.0,50,0.00,,,0.07,71.699997,,2013-09-22 18:52:00,
2013-09-22 11:02:00,44.0,27.0,-100.00,NW,314,35.0,48.0,50,0.00,,,0.07,71.699997,,2013-09-22 19:02:00,
2013-09-22 11:11:00,44.0,27.0,-100.00,NW,314,35.0,48.0,50,0.00,,,0.07,71.699997,,2013-09-22 19:11:00,
2013-09-22 11:22:00,44.0,27.0,-100.00,NW,314,35.0,48.0,50,0.00,,,0.07,71.699997,,2013-09-22 19:22:00,
2013-09-22 11:52:00,44.0,26.0,-100.00,NW,320,36.0,52.0,48,0.00,,,0.07,108.500000,,2013-09-22 19:52:00,
2013-09-22 12:03:00,44.0,26.0,-100.00,NW,320,36.0,52.0,48,0.00,,,0.07,108.500000,,2013-09-22 20:03:00,
2013-09-22 12:12:00,44.0,26.0,-100.00,NW,320,36.0,52.0,48,0.00,,,0.07,108.500000,,2013-09-22 20:12:00,
2013-09-22 12:22:00,44.0,26.0,-100.00,NW,320,36.0,52.0,48,0.00,,,0.07,108.500000,,2013-09-22 20:22:00,
2013-09-22 12:52:00,44.0,25.0,-100.00,NW,320,40.0,53.0,47,0.00,,,0.07,114.300003,,2013-09-22 20:52:00,
2013-09-22 13:02:00,44.0,25.0,-100.00,NW,320,40.0,53.0,47,0.00,,,0.07,114.300003,,2013-09-22 21:02:00,
2013-09-22 13:12:00,44.0,25.0,-100.00,NW,320,40.0,53.0,47,0.00,,,0.07,114.300003,,2013-09-22 21:12:00,
2013-09-22 13:22:00,44.0,25.0,-100.00,NW,320,40.0,53.0,47,0.00,,,0.07,114.300003,,2013-09-22 21:22:00,
2013-09-22 13:54:00,45.0,24.0,-100.00,NW,321,37.0,64.0,44,0.00,,,0.07,188.100006,,2013-09-22 21:54:00,
2013-09-22 14:04:00,45.0,24.0,-100.00,NW,321,37.0,64.0,44,0.00,,,0.07,188.100006,,2013-09-22 22:04:00,
2013-09-22 14:14:00,45.0,24.0,-100.00,NW,321,37.0,64.0,44,0.00,,,0.07,188.100006,,2013-09-22 22:14:00,
2013-09-22 14:24:00,45.0,24.0,-100.00,NW,321,37.0,64.0,44,0.00,,,0.07,188.100006,,2013-09-22 22:24:00,
2013-09-22 14:53:00,45.0,24.0,-100.00,NW,319,38.0,57.0,44,0.00,,,0.07,256.600006,,2013-09-22 22:53:00,
2013-09-22 15:03:00,45.0,24.0,-100.00,NW,319,38.0,57.0,44,0.00,,,0.07,256.600006,,2013-09-22 23:03:00,
2013-09-22 15:12:00,45.0,24.0,-100.00,NW,319,38.0,57.0,44,0.00,,,0.07,256.600006,,2013-09-22 23:12:00,
2013-09-22 15:22:00,45.0,24.0,-100.00,NW,319,38.0,57.0,44,0.00,,,0.07,256.600006,,2013-09-22 23:22:00,
2013-09-22 15:52:00,45.0,24.0,-100.00,NW,319,42.0,61.0,44,0.00,,,0.07,247.100006,,2013-09-22 23:52:00,
2013-09-22 16:01:00,45.0,24.0,-100.00,NW,319,42.0,61.0,44,0.00,,,0.07,247.100006,,2013-09-23 00:01:00,
2013-09-22 16:12:00,45.0,24.0,-100.00,NW,319,42.0,61.0,44,0.00,,,0.07,247.100006,,2013-09-23 00:12:00,
2013-09-22 16:22:00,45.0,24.0,-100.00,NW,319,42.0,61.0,44,0.00,,,0.07,247.100006,,2013-09-23 00:22:00,
2013-09-22 17:12:00,45.0,23.0,-100.00,NW,321,40.0,62.0,41,0.00,,,0.07,186.600006,,2013-09-23 01:12:00,
2013-09-22 17:22:00,45.0,23.0,-100.00,NW,321,40.0,62.0,41,0.00,,,0.07,186.600006,,2013-09-23 01:22:00,
2013-09-22 17:52:00,44.0,23.0,-100.00,NW,315,53.0,61.0,44,0.00,,,0.07,177.800003,,2013-09-23 01:52:00,
2013-09-22 18:02:00,44.0,23.0,-100.00,NW,315,53.0,61.0,44,0.00,,,0.07,177.800003,,2013-09-23 02:02:00,
2013-09-22 18:11:00,44.0,23.0,-100.00,NW,315,53.0,61.0,44,0.00,,,0.07,177.800003,,2013-09-23 02:11:00,
2013-09-22 18:22:00,44.0,23.0,-100.00,NW,315,53.0,61.0,44,0.00,,,0.07,177.800003,,2013-09-23 02:22:00,
2013-09-22 18:52:00,43.0,22.0,-100.00,NW,314,55.0,75.0,42,0.00,,,0.07,77.400002,,2013-09-23 02:52:00,
2013-09-22 19:02:00,43.0,22.0,-100.00,NW,314,55.0,75.0,42,0.00,,,0.07,77.400002,,2013-09-23 03:02:00,
2013-09-22 19:12:00,43.0,22.0,-100.00,NW,314,55.0,75.0,42,0.00,,,0.07,77.400002,,2013-09-23 03:12:00,
2013-09-22 19:22:00,43.0,22.0,-100.00,NW,314,55.0,75.0,42,0.00,,,0.07,77.400002,,2013-09-23 03:22:00,
2013-09-22 19:54:00,43.0,24.0,-100.00,NW,314,51.0,77.0,46,0.00,,,0.07,27.799999,,2013-09-23 03:54:00,
2013-09-22 20:05:00,43.0,24.0,-100.00,NW,314,51.0,77.0,46,0.00,,,0.07,27.799999,,2013-09-23 04:05:00,
2013-09-22 20:14:00,43.0,24.0,-100.00,NW,314,51.0,77.0,46,0.00,,,0.07,27.799999,,2013-09-23 04:14:00,
2013-09-22 20:24:00,43.0,24.0,-100.00,NW,314,51.0,77.0,46,0.00,,,0.07,27.799999,,2013-09-23 04:24:00,
2013-09-22 23:52:00,42.0,21.0,-100.00,NW,314,53.0,87.0,42,0.00,,,0.07,0.800000,,2013-09-23 07:52:00,